Elm City, NC

7:37 PM EST on February 24, 2017 (GMT -0500)
Rocky Mount-Wilson Regional

Weather History for KRWI - October, 2010

Change the Weather History Date:

Monday, October 4, 2010

  Actual Average Record
Temperature  
Mean Temperature 58 °F -  
Max Temperature 69 °F 76 °F 96 °F (1954)
Min Temperature 50 °F 52 °F 31 °F (1974)
Degree Days  
Heating Degree Days 7    
Growing Degree Days 8 (Base 50)    
Moisture  
Dew Point 50 °F    
Average Humidity 74    
Maximum Humidity 89    
Minimum Humidity 52    
Precipitation  
Precipitation 0.01 in - - ()
Sea Level Pressure  
Sea Level Pressure 30.07 in    
Wind  
Wind Speed 9 mph (North)    
Max Wind Speed 15 mph    
Max Gust Speed 22 mph    
Visibility 10 miles    
Events      
Averages and records for this station are not official NWS values.
T = Trace of Precipitation, MM = Missing Value Source: NWS Daily Summary

Daily Weather History Graph

Daily Weather History Graph

Search for Another Location

Airport or City:

Trip Planner

Search our weather history database for the weather conditions in past years. The results will help you decide how hot, cold, wet, or windy it might be!

Date:

Astronomy

Oct. 04, 2010 Rise Set
Actual Time 7:08 AM EDT 6:51 PM EDT
Civil Twilight 6:43 AM EDT 7:16 PM EDT
Nautical Twilight 6:13 AM EDT 7:46 PM EDT
Astronomical Twilight 5:43 AM EDT 8:15 PM EDT
Moon 3:22 AM EDT (10/4) 4:42 PM EDT (10/4)
Length of Visible Light 12h 33m
Length of Day
11h 42m
Waning Crescent, 14% of the Moon is Illuminated
Oct 4
Waning Crescent
Oct 7
New
Oct 14
First Quarter
Oct 22
Full
Oct 30
Last Quarter

Hourly Weather History & Observations

Time (EDT) Temp. Dew Point Humidity Pressure Visibility Wind Dir Wind Speed Gust Speed Precip Events Conditions
12:53 AM 60.1 °F 54.0 °F 80% 30.01 in 10.0 mi North 9.2 mph - N/A   Overcast
1:53 AM 59.0 °F 53.1 °F 81% 30.01 in 10.0 mi NNW 6.9 mph - N/A   Overcast
2:53 AM 57.9 °F 53.1 °F 84% 30.01 in 10.0 mi NNW 8.1 mph - N/A   Overcast
3:18 AM 57.2 °F 53.6 °F 88% 30.00 in 10.0 mi NNW 11.5 mph - N/A   Overcast
3:53 AM 57.9 °F 52.0 °F 81% 30.00 in 10.0 mi North 10.4 mph - N/A   Overcast
4:22 AM 57.2 °F 51.8 °F 82% 30.00 in 10.0 mi North 10.4 mph - N/A   Overcast
4:53 AM 57.9 °F 52.0 °F 81% 30.00 in 10.0 mi North 11.5 mph - N/A   Overcast
5:53 AM 57.0 °F 51.1 °F 81% 30.02 in 10.0 mi North 11.5 mph - N/A   Overcast
6:00 AM 57.2 °F 51.8 °F 82% 30.03 in 10.0 mi North 10.4 mph - N/A   Overcast
6:41 AM 57.2 °F 51.8 °F 82% 30.04 in 10.0 mi NNW 11.5 mph 20.7 mph N/A   Overcast
6:53 AM 57.0 °F 51.1 °F 81% 30.05 in 10.0 mi NNW 8.1 mph - N/A   Overcast
7:39 AM 55.4 °F 48.2 °F 77% 30.07 in 10.0 mi North 10.4 mph - N/A   Overcast
7:53 AM 55.9 °F 48.9 °F 77% 30.07 in 10.0 mi North 9.2 mph - N/A   Overcast
8:53 AM 55.9 °F 48.9 °F 77% 30.09 in 10.0 mi NNW 13.8 mph - N/A   Overcast
9:53 AM 57.9 °F 48.9 °F 72% 30.10 in 10.0 mi North 15.0 mph 20.7 mph N/A   Overcast
10:53 AM 61.0 °F 50.0 °F 67% 30.11 in 10.0 mi North 11.5 mph - N/A   Overcast
11:53 AM 61.0 °F 50.0 °F 67% 30.11 in 10.0 mi North 10.4 mph - N/A   Overcast
12:53 PM 63.0 °F 50.0 °F 63% 30.09 in 10.0 mi North 6.9 mph - N/A   Overcast
1:02 PM 64.4 °F 48.2 °F 56% 30.09 in 10.0 mi North 8.1 mph - N/A   Mostly Cloudy
1:53 PM 66.0 °F 48.9 °F 54% 30.08 in 10.0 mi North 13.8 mph 19.6 mph N/A   Mostly Cloudy
2:53 PM 66.0 °F 48.0 °F 52% 30.07 in 10.0 mi North 12.7 mph - N/A   Partly Cloudy
3:53 PM 66.0 °F 48.0 °F 52% 30.07 in 10.0 mi North 10.4 mph 21.9 mph N/A   Mostly Cloudy
4:53 PM 64.9 °F 46.9 °F 52% 30.08 in 10.0 mi NNW 10.4 mph - N/A   Mostly Cloudy
5:53 PM 64.0 °F 46.9 °F 54% 30.09 in 10.0 mi North 9.2 mph - N/A   Scattered Clouds
6:53 PM 57.0 °F 48.9 °F 74% 30.09 in 10.0 mi Calm Calm - N/A   Clear
7:53 PM 55.0 °F 48.9 °F 80% 30.11 in 10.0 mi Calm Calm - N/A   Clear
8:53 PM 52.0 °F 48.0 °F 86% 30.13 in 10.0 mi Calm Calm - N/A   Clear
9:53 PM 52.0 °F 48.9 °F 89% 30.14 in 10.0 mi Calm Calm - N/A   Overcast
10:53 PM 50.0 °F 46.9 °F 89% 30.14 in 10.0 mi Calm Calm - 0.01 in   Clear
11:53 PM 50.0 °F 46.0 °F 86% 30.14 in 10.0 mi NNE 3.5 mph - N/A   Clear